Zurück zum Katalog

ERMIS3

AktivWissenschaftSSO
NORAD 68425·PAYLOAD·🇬🇷 Greece

Gestartet Mar 30, 2026 von Vandenberg Space Force Base

Loading…

Nächste Überflüge (nächste 24 Stunden)

TLE

AktuellSource: Space-Track

Epoche: Sep 14, 2026, 07:14 UTC

1 68425U 26067K   26257.30164263  .00004779  00000-0  22734-3 0  9991
2 68425  97.4684 214.7949 0002922  57.7701 302.3817 15.19649257 25474

Verfolge ERMIS3 in Echtzeit mit AllMySat

Download on the App Store